Temperature
20 19 19 19 19 19 19 20 20 20 20 20 20 19 18 17 16 15 15 15 14 14 14 14 14 14 14 14 14 13 13 13 13 13 12 12 12 12 12 12 11 11 11 11
19 19 19 18 19 19 19 19 19 20 20 20 19 18 17 17 16 15 15 15 14 14 14 14 14 14 13 13 13 13 13 13 13 12 12 12 12 11 11 11 11 11 11 11
19 18 18 18 19 19 19 19 19 19 20 19 18 17 17 16 16 15 15 14 14 14 14 14 14 13 13 13 13 13 13 12 12 12 12 12 11 11 11 11 11 11 11 11
18 17 17 19 19 18 18 18 19 19 19 18 17 16 16 15 15 15 14 14 14 13 13 13 13 13 13 13 13 12 12 12 12 12 11 11 11 11 11 11 11 11 10 10
17 17 18 18 18 17 17 18 18 18 17 16 15 16 16 15 14 14 14 14 13 13 13 13 13 13 12 12 12 12 12 12 12 11 11 11 11 11 11 10 10 10 10 10
16 16 17 18 17 16 17 17 17 17 17 16 16 17 17 15 14 13 13 13 13 13 13 13 12 12 12 12 12 12 12 11 11 11 11 11 11 10 10 10 10 10 10 10
16 16 17 17 16 16 17 17 16 16 16 15 16 16 15 14 13 13 13 13 13 13 13 12 12 12 12 12 12 11 11 11 11 11 11 10 10 10 10 10 10 10 10 10
15 15 16 16 15 16 16 15 15 15 14 14 14 13 13 13 13 12 12 13 13 12 12 12 12 12 11 11 11 11 11 11 11 10 10 10 10 10 10 10 9 9 9 9
16 16 15 14 15 14 14 14 14 14 13 13 12 12 12 12 12 12 12 12 12 12 12 12 11 11 11 11 11 11 11 11 10 10 10 10 10 9 9 9 9 9 9 9
14 15 14 13 13 13 13 13 13 12 12 12 12 12 12 12 12 12 11 12 12 11 11 11 11 11 11 11 11 10 10 10 10 10 10 9 9 9 9 9 9 9 8 8
14 15 14 13 12 12 12 12 12 12 12 12 12 12 11 11 11 11 11 11 11 11 11 11 11 11 11 10 10 10 10 10 10 10 9 9 9 9 9 9 9 9 8 8
14 14 14 13 12 12 11 11 11 11 11 11 11 11 11 11 11 11 11 11 11 11 11 11 11 10 10 10 10 10 10 9 10 9 9 9 9 9 9 9 9 8 8 8
12 12 12 12 11 11 11 11 11 11 11 11 11 11 10 11 11 11 11 11 11 11 10 10 10 10 10 10 10 9 9 9 9 9 9 8 8 8 8 8 8 8 8 8
11 11 11 11 11 10 10 10 10 10 10 10 10 10 10 10 10 10 10 10 10 10 10 10 10 10 10 9 9 9 9 9 9 9 8 8 8 8 7 7 7 7 7 7
10 10 10 10 10 10 10 10 10 10 10 10 10 10 10 9 10 10 10 10 10 10 10 9 9 9 9 9 9 9 8 8 8 8 8 7 7 7 7 7 7 7 7 7
10 9 10 10 10 9 9 9 9 9 9 9 9 9 9 9 9 9 9 9 9 9 9 9 9 9 9 9 8 8 8 8 8 8 7 7 7 7 7 6 6 6 6 6
9 9 9 9 9 9 9 9 9 9 9 9 9 9 9 9 9 9 9 9 9 9 9 8 8 8 8 8 8 8 8 8 7 7 7 7 7 7 6 6 6 6 6 6
9 9 9 9 9 9 8 8 8 8 8 8 8 8 8 8 8 8 8 8 8 8 8 8 8 8 8 8 8 8 7 7 7 7 6 6 6 6 6 6 6 6 6 6
8 8 8 8 8 8 8 8 8 8 8 8 8 8 8 8 8 8 8 8 8 8 8 8 8 8 7 7 7 7 7 7 6 6 6 6 6 6 6 6 5 5 5 5
8 8 8 8 8 8 8 8 8 7 8 7 7 7 7 7 7 7 7 7 7 7 7 7 7 7 7 7 7 7 6 6 6 6 6 5 5 5 5 5 5 5 5 5
7 7 7 7 8 8 7 7 7 7 7 7 7 7 7 7 7 7 7 7 7 7 7 7 7 7 7 7 6 6 6 6 5 5 5 5 5 5 5 5 5 5 4 4
7 7 7 7 7 7 7 7 7 7 7 7 6 6 6 6 6 6 6 7 7 7 6 6 6 6 6 6 6 5 5 5 5 5 5 4 4 4 4 4 4 4 4 4
7 7 7 7 7 7 7 7 6 6 6 6 6 6 6 6 6 6 6 6 6 6 6 6 6 6 6 5 5 5 5 5 5 4 4 4 4 4 4 3 3 3 3 3
6 6 6 6 6 6 6 6 6 6 6 6 6 5 5 6 5 5 5 5 5 5 5 5 5 5 5 5 4 4 4 4 4 4 4 4 3 3 3 3 3 3 3 3
6 6 6 6 6 6 6 5 5 5 5 5 5 5 5 5 5 5 5 5 5 4 4 4 4 4 4 4 4 4 4 4 4 3 3 3 3 3 3 3 3 3 3 2
5 5 5 5 5 5 5 5 5 5 4 4 4 4 4 4 4 4 4 4 4 4 4 4 4 4 4 3 3 3 3 3 3 3 2 2 2 2 2 2 2 2 2 2
5 5 5 5 5 5 5 4 4 4 4 4 4 4 4 4 4 4 3 3 3 3 3 3 3 3 3 3 3 3 3 2 2 2 2 2 2 2 2 2 1 1 1 1
Wind_Speed
6 4 5 7 8 8 11 11 11 10 10 8 5 5 3 3 3 3 3 2 2 2 2 2 2 2 3 3 4 4 4 4 4 3 3 3 3 3 3 3 4 4 4 3
7 5 5 8 9 10 12 11 12 11 11 6 4 3 4 4 4 4 3 3 3 2 2 2 2 2 3 4 4 4 4 4 3 3 3 3 3 3 3 3 3 3 4 3
8 5 6 9 9 10 10 9 9 11 8 4 4 4 5 5 5 5 4 3 3 3 3 3 3 3 3 4 3 4 4 4 3 3 3 3 3 3 3 3 3 3 3 3
6 6 10 3 1 4 6 7 6 7 6 4 4 4 3 4 5 5 4 4 4 3 3 3 3 3 3 3 3 4 4 4 3 3 3 3 3 3 4 3 3 3 3 4
6 8 8 5 2 3 5 6 4 6 4 3 1 3 3 3 4 5 4 4 4 3 3 3 3 3 3 3 3 4 4 4 4 4 4 4 4 4 4 4 4 4 4 4
7 7 7 2 1 1 4 6 2 4 4 3 3 5 3 1 3 3 2 2 2 3 3 3 3 3 4 4 4 4 4 4 4 5 5 5 5 5 4 4 4 4 4 4
9 9 7 2 1 2 5 3 2 3 3 3 5 5 3 2 2 2 2 2 2 2 3 2 3 3 4 4 4 4 4 4 5 5 5 5 5 5 4 4 4 4 4 4
7 7 6 1 1 3 3 4 3 3 3 3 4 4 3 3 3 2 2 2 2 2 3 2 3 4 4 4 4 3 3 4 5 5 4 4 4 4 4 5 4 4 4 4
5 4 2 0 2 3 4 4 4 4 4 4 4 4 5 4 4 3 3 3 3 3 3 3 4 4 5 4 3 3 3 4 4 4 4 4 4 4 4 4 4 4 4 4
5 6 5 4 4 5 5 5 4 5 5 5 5 5 5 5 4 4 4 4 3 4 4 4 4 5 5 4 4 4 4 4 4 4 4 4 4 4 4 4 4 4 5 4
9 8 6 5 5 5 5 5 6 6 5 6 6 6 6 5 5 5 4 4 4 5 5 5 4 4 4 4 4 4 4 4 4 4 4 4 4 4 5 5 4 5 5 4
8 7 7 7 6 6 7 7 7 7 7 6 6 6 6 6 5 5 5 5 5 6 6 5 4 4 4 4 4 5 4 4 3 3 4 4 4 3 2 3 3 4 4 4
9 8 8 8 7 7 7 7 7 7 7 7 7 6 6 6 5 5 5 5 6 5 5 5 4 4 4 4 5 5 5 4 3 4 4 4 4 4 4 3 4 5 5 4
7 6 7 7 7 7 7 7 7 8 8 7 6 6 5 5 5 5 5 5 5 5 5 5 4 4 4 4 4 5 5 4 4 4 4 4 5 5 4 4 4 4 4 5
7 7 7 7 7 6 6 6 7 7 7 6 6 5 5 6 5 5 4 4 4 4 4 4 5 4 3 4 4 5 4 3 4 4 4 4 4 4 4 5 4 4 3 3
6 6 6 6 6 6 6 6 7 7 6 6 6 5 5 5 5 4 4 4 4 5 5 5 5 4 3 4 5 4 4 4 4 4 4 4 4 4 4 4 4 4 4 3
6 6 6 6 6 6 6 6 7 7 6 6 6 6 5 4 4 4 4 5 5 5 5 5 5 4 3 4 4 4 4 4 5 4 4 4 4 5 5 5 5 5 5 4
7 7 7 7 6 6 6 6 6 6 6 6 6 5 5 5 5 5 5 4 4 5 5 5 4 4 4 4 4 3 4 4 4 4 4 4 5 5 5 5 6 6 4 4
6 6 6 6 6 6 6 6 6 6 6 5 5 5 5 6 6 5 5 5 5 6 5 4 3 4 4 4 3 4 4 4 4 4 4 4 5 5 5 5 5 5 5 4
4 4 5 5 5 5 5 5 6 5 5 5 5 5 5 5 5 5 5 5 5 5 4 4 4 5 4 4 4 4 4 4 4 4 4 4 5 5 5 5 5 6 5 5
4 4 4 4 5 5 5 5 5 5 5 5 5 5 5 5 4 4 4 5 4 3 3 4 4 4 3 3 4 4 4 4 4 4 4 4 4 5 5 5 5 5 5 5
5 5 5 5 5 5 5 5 5 5 5 4 4 4 4 4 4 5 5 4 3 2 3 3 3 3 3 3 4 4 4 4 4 4 4 4 4 5 5 5 5 5 5 5
6 6 6 6 5 5 5 5 5 4 4 4 4 4 4 4 4 4 4 3 2 3 3 3 3 3 4 4 4 4 4 4 4 4 4 5 5 5 5 5 5 5 5 5
6 6 5 5 4 5 5 4 4 4 4 4 4 4 4 4 3 3 3 2 2 2 3 2 3 3 4 4 4 4 4 4 4 4 5 5 4 5 5 5 5 5 5 6
6 5 5 4 4 4 4 4 4 4 3 3 3 3 3 3 3 3 3 2 2 2 3 2 3 4 4 3 4 4 4 4 4 4 4 5 5 5 5 5 5 5 5 5
6 5 5 5 4 4 3 3 3 3 3 3 3 2 2 2 2 2 2 2 3 3 3 2 2 3 3 3 3 4 3 4 4 4 4 4 5 5 5 5 5 5 5 5
5 5 4 4 3 3 3 3 3 3 3 3 3 2 2 2 2 2 2 3 3 3 3 2 2 2 2 3 3 3 3 3 3 4 4 4 4 4 5 5 5 5 4 5
Wind_Direction
256 262 243 241 240 231 237 251 259 262 263 274 271 256 241 212 189 175 174 189 198 207 213 215 216 207 192 187 186 184 181 187 196 202 199 195 200 210 209 207 214 213 211 215
238 236 241 250 251 243 244 250 253 260 265 275 280 256 229 222 207 199 199 209 212 215 219 221 219 213 202 191 190 187 188 196 199 198 194 197 200 206 212 213 214 210 210 210
248 241 252 253 248 240 238 239 248 256 266 256 244 236 234 232 226 220 219 222 225 224 219 225 225 214 203 195 191 196 198 199 197 196 199 206 203 202 210 216 211 206 216 220
256 247 245 257 54 239 242 253 259 268 277 267 258 261 251 237 234 236 233 231 231 232 225 221 215 210 198 186 193 200 204 206 201 200 205 207 206 211 218 219 216 214 221 227
243 250 259 261 255 233 242 261 260 264 271 276 241 225 242 245 245 242 239 239 233 229 222 212 207 204 194 189 197 208 212 213 208 209 209 207 211 216 218 220 223 227 229 229
235 247 256 279 39 269 244 253 272 263 255 243 229 242 254 253 248 250 249 243 232 216 210 209 205 198 198 202 209 218 222 221 215 214 211 210 213 215 215 217 224 227 227 229
236 245 257 329 353 209 236 290 359 283 266 247 250 281 314 297 249 239 239 240 227 210 208 214 202 199 210 215 225 229 228 223 216 216 218 219 217 215 213 213 218 223 227 229
228 238 250 82 179 232 315 350 327 311 299 279 288 307 308 292 268 251 249 245 229 216 216 212 202 205 220 230 236 227 223 223 221 218 217 220 218 220 217 208 209 219 228 233
233 250 357 205 272 321 322 309 311 304 298 288 285 287 286 278 266 257 253 249 232 219 222 224 217 216 226 232 228 223 225 226 224 221 216 216 214 213 215 215 218 220 224 231
249 254 277 284 288 299 301 298 304 301 296 287 281 281 279 272 262 256 253 246 232 223 229 235 234 228 228 224 220 221 226 229 225 220 218 216 216 215 215 218 223 228 229 232
257 266 274 266 275 289 301 306 307 305 299 290 283 278 274 267 260 253 250 244 235 231 236 240 236 230 226 218 215 224 228 230 227 221 223 223 223 224 225 226 230 232 234 235
260 271 270 272 283 292 290 292 297 300 300 295 284 277 274 269 264 257 253 253 247 241 238 237 232 230 228 221 221 226 230 232 229 225 225 226 227 231 226 231 223 232 247 248
269 277 275 277 279 283 282 285 289 291 291 291 288 279 272 269 265 262 254 249 243 240 239 237 231 230 226 221 224 228 233 236 236 233 229 227 227 229 233 229 209 212 217 230
258 263 268 270 279 287 287 288 288 288 286 284 282 277 271 266 263 262 257 254 248 245 241 237 233 238 238 226 225 232 236 235 239 236 234 232 232 232 230 231 235 239 221 212
256 256 266 277 280 284 286 284 285 287 287 286 281 272 263 260 261 260 260 256 246 240 238 237 238 244 245 230 229 234 237 239 238 237 237 234 231 232 230 233 236 239 241 221
266 266 267 267 271 278 280 278 280 282 283 283 280 274 267 262 261 261 256 242 234 238 241 242 246 249 245 234 231 235 237 235 239 236 234 234 230 229 229 232 236 236 237 237
254 262 264 266 272 275 277 277 275 279 283 281 279 278 269 259 256 255 252 243 240 243 245 245 249 249 241 235 231 232 237 230 221 231 233 234 235 232 233 234 236 239 242 229
252 257 260 264 270 274 274 275 275 276 277 281 279 270 260 254 254 258 258 252 247 248 248 246 244 239 237 235 232 233 232 231 230 233 236 236 240 239 236 237 238 242 246 226
255 260 264 264 264 264 267 274 278 281 288 285 275 267 263 262 260 260 258 252 250 252 254 248 240 236 238 235 231 231 233 233 232 236 239 239 241 244 241 238 239 240 237 231
265 267 266 265 264 265 270 276 280 281 285 283 276 269 264 266 264 259 255 254 254 259 259 250 237 236 238 232 221 233 232 233 236 240 243 243 245 248 246 242 238 235 233 230
277 276 270 267 270 274 275 277 279 281 283 279 271 267 268 272 268 262 259 264 269 263 256 238 234 235 237 239 225 233 230 232 237 242 244 246 248 250 250 246 240 236 233 232
278 278 275 272 271 275 279 278 277 277 277 279 279 276 273 271 271 269 265 269 277 261 250 240 243 250 252 250 234 229 227 230 236 241 245 246 247 249 249 246 243 241 240 237
276 273 271 269 268 274 279 278 275 273 272 278 280 274 270 271 271 271 278 284 276 267 264 257 259 247 246 245 238 232 231 233 236 239 242 246 247 246 246 246 244 241 240 242
277 274 272 272 271 269 271 278 280 277 275 277 278 276 273 274 277 277 281 284 287 274 272 271 249 244 247 245 242 239 239 240 241 241 243 245 245 244 243 244 245 244 241 241
276 273 269 265 262 265 271 276 276 275 276 279 283 287 281 275 279 286 288 288 294 284 282 268 247 247 247 248 247 246 247 245 245 245 243 243 243 243 244 245 247 248 245 241
269 264 261 261 266 263 259 258 260 268 275 280 288 293 299 302 296 290 287 285 285 292 289 279 266 258 261 260 255 251 249 245 242 244 245 246 244 244 246 246 249 250 249 246
263 260 257 257 261 258 255 253 256 264 270 273 282 291 298 305 307 311 311 303 299 297 293 287 281 276 274 269 264 260 256 252 248 250 250 250 249 248 249 251 251 249 247 246
Height
1494 1495 1495 1496 1497 1498 1498 1495 1496 1492 1493 1492 1493 1495 1497 1499 1500 1501 1502 1503 1503 1504 1505 1505 1506 1506 1507 1508 1509 1510 1511 1511 1512 1513 1513 1513 1514 1515 1515 1516 1516 1516 1517 1517
1496 1495 1495 1496 1494 1495 1495 1494 1493 1492 1492 1491 1494 1495 1496 1497 1499 1500 1500 1501 1501 1502 1503 1503 1504 1504 1505 1506 1507 1508 1509 1509 1510 1510 1510 1510 1511 1512 1512 1513 1513 1513 1514 1514
1494 1494 1495 1495 1490 1491 1491 1490 1490 1490 1489 1490 1492 1494 1495 1496 1496 1497 1499 1499 1500 1500 1500 1501 1502 1502 1503 1503 1504 1505 1506 1507 1507 1507 1508 1508 1508 1509 1509 1510 1510 1510 1511 1511
1494 1497 1500 1488 1487 1488 1489 1488 1488 1488 1489 1490 1491 1493 1494 1494 1495 1495 1496 1497 1497 1498 1498 1499 1500 1500 1501 1501 1502 1503 1503 1504 1504 1504 1505 1505 1505 1506 1506 1507 1507 1507 1508 1508
1495 1494 1489 1487 1487 1488 1489 1487 1487 1488 1489 1490 1491 1491 1491 1492 1493 1494 1494 1495 1495 1496 1496 1497 1498 1498 1499 1499 1500 1500 1501 1501 1501 1502 1502 1502 1502 1503 1504 1504 1504 1504 1505 1505
1494 1495 1493 1486 1486 1488 1489 1487 1486 1487 1488 1489 1489 1488 1488 1490 1490 1491 1491 1492 1492 1493 1493 1494 1495 1495 1496 1496 1496 1497 1497 1498 1499 1499 1499 1499 1500 1500 1501 1501 1502 1502 1502 1502
1491 1491 1486 1485 1488 1488 1491 1486 1487 1487 1487 1488 1488 1487 1488 1488 1488 1489 1489 1489 1489 1490 1490 1491 1492 1492 1493 1493 1494 1494 1495 1495 1496 1496 1496 1497 1497 1497 1498 1498 1498 1499 1499 1499
1490 1491 1490 1487 1487 1487 1487 1487 1487 1487 1487 1487 1487 1487 1486 1486 1486 1486 1486 1486 1487 1487 1488 1488 1489 1489 1490 1490 1491 1491 1491 1492 1492 1493 1493 1493 1494 1494 1494 1495 1495 1495 1496 1496
1486 1487 1486 1487 1487 1488 1488 1487 1486 1486 1486 1486 1485 1484 1484 1484 1483 1483 1483 1483 1484 1484 1485 1485 1486 1486 1486 1487 1488 1488 1488 1489 1489 1490 1490 1490 1490 1490 1490 1491 1491 1491 1492 1492
1486 1484 1486 1487 1487 1487 1487 1486 1486 1485 1484 1483 1482 1482 1482 1481 1481 1480 1480 1480 1480 1481 1481 1482 1482 1482 1483 1484 1484 1484 1485 1485 1486 1486 1486 1486 1486 1487 1487 1487 1487 1487 1488 1488
1484 1484 1485 1485 1485 1485 1485 1484 1483 1483 1482 1481 1479 1479 1478 1478 1477 1477 1477 1477 1477 1477 1478 1478 1478 1479 1479 1480 1480 1481 1481 1481 1482 1482 1482 1482 1483 1483 1483 1483 1483 1483 1484 1484
1481 1482 1482 1482 1483 1483 1482 1481 1481 1479 1478 1477 1477 1476 1475 1474 1474 1474 1473 1473 1473 1473 1474 1474 1475 1475 1475 1476 1476 1477 1477 1477 1478 1478 1478 1478 1478 1478 1478 1479 1479 1479 1480 1480
1481 1480 1481 1480 1480 1480 1479 1478 1478 1477 1475 1474 1473 1472 1471 1470 1470 1470 1470 1469 1469 1469 1470 1471 1471 1471 1471 1472 1472 1472 1473 1473 1473 1474 1474 1474 1474 1474 1474 1474 1475 1475 1475 1475
1478 1478 1477 1477 1477 1476 1476 1475 1474 1473 1472 1471 1469 1468 1467 1467 1466 1466 1466 1466 1466 1466 1467 1467 1467 1467 1468 1468 1468 1469 1469 1469 1469 1469 1469 1470 1470 1469 1470 1469 1470 1470 1470 1470
1474 1475 1474 1474 1473 1473 1472 1471 1470 1469 1468 1467 1466 1465 1464 1463 1463 1463 1463 1463 1463 1463 1463 1463 1463 1463 1464 1464 1464 1464 1465 1465 1465 1465 1465 1465 1465 1465 1465 1466 1466 1465 1466 1466
1471 1471 1471 1470 1470 1469 1468 1468 1467 1466 1465 1464 1463 1462 1461 1460 1460 1459 1459 1459 1459 1459 1459 1459 1459 1459 1460 1460 1460 1460 1460 1461 1461 1461 1461 1461 1461 1461 1461 1461 1461 1461 1461 1462
1467 1467 1467 1467 1466 1466 1465 1464 1464 1462 1461 1460 1459 1459 1458 1457 1456 1456 1456 1455 1455 1455 1455 1455 1455 1455 1456 1456 1456 1456 1456 1456 1456 1457 1457 1457 1457 1456 1456 1457 1457 1457 1457 1457
1464 1464 1464 1463 1463 1462 1461 1461 1460 1459 1458 1457 1456 1455 1454 1453 1453 1452 1452 1452 1451 1451 1451 1451 1452 1451 1452 1452 1452 1452 1452 1452 1452 1452 1452 1452 1452 1452 1452 1452 1452 1452 1452 1452
1460 1460 1460 1460 1459 1459 1458 1457 1456 1455 1454 1453 1452 1451 1450 1450 1449 1449 1448 1448 1447 1447 1447 1447 1447 1448 1447 1447 1447 1447 1447 1447 1448 1448 1448 1448 1448 1447 1447 1448 1448 1448 1448 1448
1457 1456 1456 1455 1455 1455 1454 1453 1452 1451 1450 1449 1448 1447 1446 1446 1446 1445 1445 1444 1444 1444 1443 1443 1443 1443 1443 1443 1443 1443 1443 1443 1443 1443 1443 1443 1443 1443 1443 1443 1443 1443 1443 1443
1453 1453 1452 1452 1451 1451 1451 1450 1449 1447 1446 1445 1444 1443 1443 1442 1442 1441 1440 1440 1440 1439 1439 1439 1439 1439 1439 1439 1439 1438 1438 1438 1438 1438 1438 1438 1438 1438 1438 1438 1438 1438 1438 1437
1450 1450 1449 1448 1448 1447 1447 1446 1445 1444 1443 1442 1441 1440 1439 1438 1438 1437 1437 1436 1436 1435 1434 1434 1434 1434 1434 1434 1434 1434 1434 1434 1434 1434 1434 1434 1433 1433 1433 1433 1433 1432 1432 1432
1447 1446 1445 1445 1444 1443 1443 1442 1441 1440 1439 1438 1437 1436 1436 1435 1434 1434 1433 1432 1431 1431 1430 1430 1429 1429 1429 1429 1430 1430 1429 1429 1429 1429 1429 1429 1429 1429 1428 1428 1428 1427 1427 1427
1444 1443 1442 1441 1441 1440 1439 1438 1437 1437 1436 1435 1434 1433 1432 1431 1431 1430 1429 1428 1427 1427 1426 1425 1425 1425 1425 1425 1425 1425 1425 1425 1425 1425 1425 1424 1424 1424 1424 1423 1423 1422 1422 1422
1440 1439 1438 1438 1437 1436 1435 1434 1434 1433 1432 1431 1431 1430 1429 1428 1427 1426 1426 1425 1424 1423 1422 1422 1421 1421 1421 1421 1421 1421 1421 1420 1420 1420 1419 1419 1419 1419 1418 1418 1418 1417 1417 1416
1436 1435 1435 1434 1434 1433 1432 1431 1431 1430 1429 1428 1428 1427 1426 1425 1424 1423 1422 1421 1421 1420 1419 1418 1417 1417 1417 1417 1417 1416 1416 1415 1415 1415 1415 1414 1414 1414 1413 1413 1413 1412 1411 1411
1432 1431 1431 1430 1430 1429 1429 1428 1428 1427 1426 1426 1425 1424 1423 1422 1421 1420 1419 1418 1417 1416 1415 1415 1414 1413 1413 1412 1412 1412 1411 1411 1410 1410 1410 1409 1409 1408 1408 1408 1407 1407 1406 1406